EN

Hourly Weather Abbotsford

Today, 13 June, Sunday

Time Temperature Precipitation Wind Pressure Humidity
00:00 +15°C° 0.1 mm 1 mps 750 mmHg 75%
01:00 +15°C° 0.1 mm 1 mps 750 mmHg 79%
02:00 +15°C° 0.5 mm 1 mps 750 mmHg 85%
03:00 +14°C° 0.5 mm 1 mps 751 mmHg 91%
04:00 +14°C° 0.5 mm 1 mps 751 mmHg 97%
05:00 +14°C° 1.1 mm 1 mps 751 mmHg 97%
06:00 +14°C° 1.1 mm 1 mps 752 mmHg 97%
07:00 +14°C° 1.1 mm 1 mps 752 mmHg 98%
08:00 +14°C° 0.8 mm 1 mps 752 mmHg 98%
09:00 +15°C° 0.8 mm 1 mps 752 mmHg 97%
10:00 +15°C° 0.8 mm 1 mps 752 mmHg 97%
11:00 +16°C° 0.8 mm 1 mps 752 mmHg 97%
12:00 +16°C° 0.8 mm 1 mps 752 mmHg 96%
13:00 +18°C° 0.8 mm 1 mps 752 mmHg 95%
14:00 +18°C° 1.2 mm 1 mps 753 mmHg 95%
15:00 +18°C° 1.2 mm 1 mps 753 mmHg 96%
16:00 +18°C° 1.2 mm 1 mps 753 mmHg 96%
17:00 +18°C° 0.4 mm 1 mps 753 mmHg 96%
18:00 +16°C° 0.4 mm 1 mps 752 mmHg 97%
19:00 +16°C° 0.4 mm 1 mps 752 mmHg 97%
20:00 +16°C° 0 mm 1 mps 752 mmHg 96%
21:00 +16°C° 0 mm 1 mps 752 mmHg 96%
22:00 +15°C° 0 mm 1 mps 752 mmHg 96%
23:00 +15°C° 0 mm 1 mps 752 mmHg 96%

Tomorrow, 14 June, Monday

Time Temperature Precipitation Wind Pressure Humidity
00:00 +14°C° 0 mm 1 mps 752 mmHg 96%
01:00 +14°C° 0 mm 1 mps 752 mmHg 96%
02:00 +14°C° 0 mm 1 mps 752 mmHg 95%
03:00 +14°C° 0 mm 1 mps 752 mmHg 95%
04:00 +14°C° 0 mm 1 mps 752 mmHg 95%
05:00 +15°C° 0 mm 1 mps 753 mmHg 92%
06:00 +16°C° 0 mm 1 mps 753 mmHg 90%
07:00 +16°C° 0 mm 0 mps 753 mmHg 88%
08:00 +19°C° 0.1 mm 1 mps 753 mmHg 84%
09:00 +20°C° 0.1 mm 1 mps 754 mmHg 80%
10:00 +20°C° 0.1 mm 1 mps 754 mmHg 76%
11:00 +21°C° 0.4 mm 1 mps 754 mmHg 75%
12:00 +21°C° 0.4 mm 1 mps 754 mmHg 74%
13:00 +20°C° 0.4 mm 2 mps 754 mmHg 73%
14:00 +21°C° 0.2 mm 1 mps 755 mmHg 74%
15:00 +20°C° 0.2 mm 1 mps 755 mmHg 74%
16:00 +20°C° 0.2 mm 1 mps 755 mmHg 75%
17:00 +20°C° 0.1 mm 1 mps 755 mmHg 77%
18:00 +19°C° 0.1 mm 1 mps 755 mmHg 79%
19:00 +19°C° 0.1 mm 1 mps 755 mmHg 81%
20:00 +18°C° 0 mm 1 mps 755 mmHg 85%
21:00 +15°C° 0 mm 1 mps 755 mmHg 90%
22:00 +13°C° 0 mm 1 mps 755 mmHg 94%
23:00 +13°C° 0.2 mm 1 mps 755 mmHg 95%

Day after tomorrow, 15 June, Tuesday

Time Temperature Precipitation Wind Pressure Humidity
00:00 +13°C° 0.2 mm 1 mps 755 mmHg 95%
01:00 +12°C° 0.2 mm 1 mps 755 mmHg 96%
02:00 +12°C° 0.4 mm 1 mps 755 mmHg 96%
03:00 +11°C° 0.4 mm 1 mps 756 mmHg 96%
04:00 +11°C° 0.4 mm 1 mps 756 mmHg 97%
05:00 +12°C° 0.2 mm 1 mps 757 mmHg 95%
06:00 +13°C° 0.2 mm 1 mps 757 mmHg 93%
07:00 +14°C° 0.2 mm 0 mps 757 mmHg 92%
08:00 +16°C° 0.1 mm 1 mps 757 mmHg 82%
09:00 +17°C° 0.1 mm 2 mps 757 mmHg 72%
10:00 +19°C° 0.1 mm 2 mps 757 mmHg 62%
11:00 +19°C° 0.3 mm 2 mps 757 mmHg 61%
12:00 +19°C° 0.3 mm 2 mps 758 mmHg 60%
13:00 +20°C° 0.3 mm 2 mps 758 mmHg 58%
14:00 +20°C° 0.2 mm 2 mps 758 mmHg 58%
15:00 +20°C° 0.2 mm 2 mps 758 mmHg 57%
16:00 +20°C° 0.2 mm 2 mps 758 mmHg 56%
17:00 +19°C° 0.2 mm 2 mps 759 mmHg 63%
18:00 +17°C° 0.2 mm 2 mps 759 mmHg 71%
19:00 +16°C° 0.2 mm 2 mps 759 mmHg 78%
20:00 +15°C° 0.1 mm 1 mps 760 mmHg 81%
21:00 +14°C° 0.1 mm 1 mps 761 mmHg 85%
22:00 +13°C° 0.1 mm 1 mps 761 mmHg 88%
23:00 +12°C° 0 mm 1 mps 762 mmHg 89%

16 June, Wednesday

Time Temperature Precipitation Wind Pressure Humidity
00:00 +12°C° 0 mm 1 mps 762 mmHg 90%
01:00 +11°C° 0 mm 1 mps 762 mmHg 91%
02:00 +11°C° 0 mm 1 mps 763 mmHg 92%
03:00 +11°C° 0 mm 1 mps 763 mmHg 92%
04:00 +11°C° 0 mm 1 mps 763 mmHg 93%
05:00 +12°C° 0 mm 1 mps 763 mmHg 88%
06:00 +14°C° 0 mm 1 mps 763 mmHg 83%
07:00 +15°C° 0 mm 1 mps 764 mmHg 78%
08:00 +18°C° 0 mm 1 mps 763 mmHg 70%
09:00 +19°C° 0 mm 1 mps 763 mmHg 62%
10:00 +21°C° 0 mm 1 mps 763 mmHg 54%
11:00 +22°C° 0 mm 1 mps 763 mmHg 51%
12:00 +21°C° 0 mm 2 mps 762 mmHg 48%
13:00 +23°C° 0 mm 2 mps 762 mmHg 46%
14:00 +23°C° 0 mm 2 mps 761 mmHg 46%
15:00 +23°C° 0 mm 2 mps 761 mmHg 46%
16:00 +23°C° 0 mm 2 mps 760 mmHg 47%
17:00 +21°C° 0 mm 2 mps 760 mmHg 56%
18:00 +21°C° 0 mm 1 mps 760 mmHg 65%
19:00 +19°C° 0 mm 1 mps 760 mmHg 74%
20:00 +16°C° 0 mm 1 mps 761 mmHg 79%
21:00 +15°C° 0 mm 1 mps 761 mmHg 85%
22:00 +13°C° 0 mm 1 mps 761 mmHg 91%
23:00 +13°C° 0 mm 1 mps 761 mmHg 91%

17 June, Thursday

Time Temperature Precipitation Wind Pressure Humidity
00:00 +12°C° 0 mm 1 mps 761 mmHg 91%
01:00 +12°C° 0 mm 1 mps 761 mmHg 91%
02:00 +12°C° 0 mm 1 mps 761 mmHg 90%
03:00 +12°C° 0 mm 1 mps 761 mmHg 89%
04:00 +12°C° 0 mm 1 mps 761 mmHg 87%
05:00 +14°C° 0 mm 1 mps 761 mmHg 78%
06:00 +16°C° 0 mm 1 mps 761 mmHg 69%
07:00 +19°C° 0 mm 1 mps 761 mmHg 60%
08:00 +21°C° 0 mm 1 mps 760 mmHg 55%
09:00 +23°C° 0 mm 1 mps 760 mmHg 50%
10:00 +25°C° 0 mm 1 mps 760 mmHg 45%
11:00 +26°C° 0 mm 2 mps 759 mmHg 43%
12:00 +27°C° 0 mm 2 mps 759 mmHg 41%
13:00 +28°C° 0 mm 2 mps 759 mmHg 40%
14:00 +28°C° 0 mm 2 mps 758 mmHg 41%
15:00 +28°C° 0 mm 2 mps 758 mmHg 42%
16:00 +28°C° 0 mm 2 mps 757 mmHg 43%
17:00 +26°C° 0 mm 1 mps 757 mmHg 52%
18:00 +25°C° 0 mm 1 mps 757 mmHg 62%
19:00 +23°C° 0 mm 1 mps 757 mmHg 72%
20:00 +21°C° 0 mm 1 mps 757 mmHg 74%
21:00 +20°C° 0 mm 1 mps 757 mmHg 77%
22:00 +18°C° 0 mm 1 mps 757 mmHg 80%
23:00 +18°C° 0 mm 1 mps 757 mmHg 79%

18 June, Friday

Time Temperature Precipitation Wind Pressure Humidity
00:00 +18°C° 0 mm 1 mps 756 mmHg 78%
01:00 +16°C° 0 mm 1 mps 756 mmHg 77%
02:00 +16°C° 0 mm 1 mps 756 mmHg 76%
03:00 +16°C° 0 mm 1 mps 756 mmHg 74%
04:00 +16°C° 0 mm 1 mps 756 mmHg 72%
05:00 +19°C° 0 mm 1 mps 756 mmHg 66%
06:00 +21°C° 0 mm 1 mps 756 mmHg 59%
07:00 +21°C° 0 mm 0 mps 756 mmHg 53%
08:00 +25°C° 0 mm 1 mps 755 mmHg 48%
09:00 +27°C° 0 mm 1 mps 755 mmHg 43%
10:00 +29°C° 0 mm 1 mps 755 mmHg 38%
11:00 +29°C° 0 mm 2 mps 754 mmHg 38%
12:00 +30°C° 0 mm 2 mps 754 mmHg 38%
13:00 +30°C° 0 mm 2 mps 754 mmHg 37%
14:00 +30°C° 0 mm 2 mps 754 mmHg 39%
15:00 +30°C° 0 mm 2 mps 753 mmHg 40%
16:00 +29°C° 0 mm 2 mps 753 mmHg 41%
17:00 +27°C° 0 mm 2 mps 753 mmHg 51%
18:00 +25°C° 0 mm 1 mps 753 mmHg 61%
19:00 +23°C° 0 mm 1 mps 753 mmHg 71%
20:00 +21°C° 0 mm 1 mps 753 mmHg 74%
21:00 +20°C° 0 mm 1 mps 753 mmHg 77%
22:00 +18°C° 0 mm 1 mps 753 mmHg 80%
23:00 +16°C° 0 mm 1 mps 754 mmHg 80%
Show more